Location: Crescent
(42.8242°N, 73.7329°W)
Time: 18:25:12
(UTC+00:00)

Vanguard 1 - Pass Details

Date: 23 February 2026
Orbit: 653 x 3818 km, 34.2° (Epoch: 5 March)

Event Time Altitude Azimuth Distance (km) Brightness Sun altitude
Rises 01:37:45 0° 279° (W) 6,359 15.2 -33.7°
Reaches altitude 10° 01:42:11 10° 269° (W) 5,746 14.7 -34.5°
Maximum altitude 01:57:26 31° 217° (SW) 5,085 13.6 -37.1°
Enters shadow 02:12:02 16° 172° (S) 6,355 13.8 -39.5°
Drops below altitude 10° 02:15:52 10° 165° (SSE) 6,844 - -40.1°
Sets 02:22:01 0° 156° (SSE) 7,687 - -41.1°
